iso_date,epoch_date,Year,Hour,Min,DOY,POS_DOY,Lat,Lon,BP,Ts,Ta,has_bp,has_ts,has_ta,BuoyID,Buoy_Type,Buoy_Owner,Logistics,Hemisphere
2021-09-02T16:59:57Z,1630601997,2021,17,0,245.7083,245.7083,76.917,-76.587,1014.0,1.0,-999.0,yes,yes,no,300234067001120,SVP-B,ECCC,RCAF,North
2021-09-02T18:00:00Z,1630605600,2021,18,0,245.75,245.75,76.9242,-76.5912,1013.6,1.0,-999.0,yes,yes,no,300234067001120,SVP-B,ECCC,RCAF,North
2021-09-02T19:00:02Z,1630609203,2021,19,0,245.7917,245.7917,76.9306,-76.5792,1013.0,1.1,-999.0,yes,yes,no,300234067001120,SVP-B,ECCC,RCAF,North
2021-09-02T19:59:57Z,1630612797,2021,20,0,245.8333,245.8333,76.9356,-76.5532,1012.6,1.2,-999.0,yes,yes,no,300234067001120,SVP-B,ECCC,RCAF,North
2021-09-02T21:00:00Z,1630616400,2021,21,0,245.875,245.875,76.9396,-76.5268,1012.0,1.3,-999.0,yes,yes,no,300234067001120,SVP-B,ECCC,RCAF,North
2021-09-02T22:00:02Z,1630620003,2021,22,0,245.9167,245.9167,76.943,-76.507,1011.7,1.3,-999.0,yes,yes,no,300234067001120,SVP-B,ECCC,RCAF,North
2021-09-02T22:59:57Z,1630623597,2021,23,0,245.9583,245.9583,76.9432,-76.4926,1011.4,1.2,-999.0,yes,yes,no,300234067001120,SVP-B,ECCC,RCAF,North
2021-09-03T00:00:00Z,1630627200,2021,0,0,246.0,246.0,76.9412,-76.4842,1011.0,1.0,-999.0,yes,yes,no,300234067001120,SVP-B,ECCC,RCAF,North
2021-09-03T01:00:02Z,1630630803,2021,1,0,246.0417,246.0417,76.94,-76.4768,1010.6,1.0,-999.0,yes,yes,no,300234067001120,SVP-B,ECCC,RCAF,North
2021-09-03T01:59:57Z,1630634397,2021,2,0,246.0833,246.0833,76.9408,-76.4726,1010.3,1.0,-999.0,yes,yes,no,300234067001120,SVP-B,ECCC,RCAF,North
2021-09-03T03:00:00Z,1630638000,2021,3,0,246.125,246.125,76.9414,-76.4568,1010.1,0.9,-999.0,yes,yes,no,300234067001120,SVP-B,ECCC,RCAF,North
2021-09-03T04:00:02Z,1630641603,2021,4,0,246.1667,246.1667,76.9392,-76.4304,1010.0,1.0,-999.0,yes,yes,no,300234067001120,SVP-B,ECCC,RCAF,North
2021-09-03T04:59:57Z,1630645197,2021,5,0,246.2083,246.2083,76.9356,-76.4018,1009.7,0.9,-999.0,yes,yes,no,300234067001120,SVP-B,ECCC,RCAF,North
2021-09-03T06:00:00Z,1630648800,2021,6,0,246.25,246.25,76.9358,-76.3958,1009.8,0.9,-999.0,yes,yes,no,300234067001120,SVP-B,ECCC,RCAF,North
2021-09-03T07:00:02Z,1630652403,2021,7,0,246.2917,246.2917,76.9424,-76.3928,1009.9,0.9,-999.0,yes,yes,no,300234067001120,SVP-B,ECCC,RCAF,North
2021-09-03T07:59:57Z,1630655997,2021,8,0,246.3333,246.3333,76.9544,-76.3834,1010.1,1.0,-999.0,yes,yes,no,300234067001120,SVP-B,ECCC,RCAF,North
2021-09-03T09:00:00Z,1630659600,2021,9,0,246.375,246.375,76.9686,-76.3634,1010.2,1.0,-999.0,yes,yes,no,300234067001120,SVP-B,ECCC,RCAF,North
2021-09-03T10:00:02Z,1630663203,2021,10,0,246.4167,246.4167,76.9788,-76.3462,1010.5,1.1,-999.0,yes,yes,no,300234067001120,SVP-B,ECCC,RCAF,North
2021-09-03T10:59:57Z,1630666797,2021,11,0,246.4583,246.4583,76.9868,-76.33,1010.8,1.1,-999.0,yes,yes,no,300234067001120,SVP-B,ECCC,RCAF,North
2021-09-03T12:00:00Z,1630670400,2021,12,0,246.5,246.5,76.9918,-76.3202,1010.8,1.1,-999.0,yes,yes,no,300234067001120,SVP-B,ECCC,RCAF,North
2021-09-03T13:00:02Z,1630674003,2021,13,0,246.5417,246.5417,76.996,-76.3162,1010.6,1.1,-999.0,yes,yes,no,300234067001120,SVP-B,ECCC,RCAF,North
2021-09-03T13:59:57Z,1630677597,2021,14,0,246.5833,246.5833,76.9986,-76.3182,1010.5,1.1,-999.0,yes,yes,no,300234067001120,SVP-B,ECCC,RCAF,North
2021-09-03T15:00:00Z,1630681200,2021,15,0,246.625,246.625,76.9974,-76.3248,1010.3,1.2,-999.0,yes,yes,no,300234067001120,SVP-B,ECCC,RCAF,North
2021-09-03T16:00:02Z,1630684803,2021,16,0,246.6667,246.6667,76.9964,-76.326,1010.0,1.2,-999.0,yes,yes,no,300234067001120,SVP-B,ECCC,RCAF,North
2021-09-03T16:59:57Z,1630688397,2021,17,0,246.7083,246.7083,76.9946,-76.3076,1010.0,1.0,-999.0,yes,yes,no,300234067001120,SVP-B,ECCC,RCAF,North
2021-09-03T18:00:00Z,1630692000,2021,18,0,246.75,246.75,76.9906,-76.2802,1009.9,1.0,-999.0,yes,yes,no,300234067001120,SVP-B,ECCC,RCAF,North
2021-09-03T19:00:02Z,1630695603,2021,19,0,246.7917,246.7917,76.9906,-76.2494,1010.1,0.9,-999.0,yes,yes,no,300234067001120,SVP-B,ECCC,RCAF,North
2021-09-03T19:59:57Z,1630699197,2021,20,0,246.8333,246.8333,76.9936,-76.22,1010.0,1.0,-999.0,yes,yes,no,300234067001120,SVP-B,ECCC,RCAF,North
2021-09-03T21:00:00Z,1630702800,2021,21,0,246.875,246.875,76.9994,-76.1866,1010.1,1.0,-999.0,yes,yes,no,300234067001120,SVP-B,ECCC,RCAF,North
2021-09-03T22:00:02Z,1630706403,2021,22,0,246.9167,246.9167,77.0078,-76.1474,1010.2,1.0,-999.0,yes,yes,no,300234067001120,SVP-B,ECCC,RCAF,North
2021-09-03T22:59:57Z,1630709997,2021,23,0,246.9583,246.9583,77.0204,-76.0948,1010.2,0.0,-999.0,yes,yes,no,300234067001120,SVP-B,ECCC,RCAF,North
2021-09-04T00:00:00Z,1630713600,2021,0,0,247.0,247.0,77.0348,-76.034,1009.9,0.0,-999.0,yes,yes,no,300234067001120,SVP-B,ECCC,RCAF,North
2021-09-04T01:00:02Z,1630717203,2021,1,0,247.0417,247.0417,77.0468,-75.9514,1009.4,-0.1,-999.0,yes,yes,no,300234067001120,SVP-B,ECCC,RCAF,North
2021-09-04T01:59:57Z,1630720797,2021,2,0,247.0833,247.0833,77.0546,-75.8598,1009.2,-0.1,-999.0,yes,yes,no,300234067001120,SVP-B,ECCC,RCAF,North
2021-09-04T03:00:00Z,1630724400,2021,3,0,247.125,247.125,77.0588,-75.7788,1008.8,-0.2,-999.0,yes,yes,no,300234067001120,SVP-B,ECCC,RCAF,North
2021-09-04T04:00:02Z,1630728003,2021,4,0,247.1667,247.1667,77.0586,-75.708,1008.5,-0.2,-999.0,yes,yes,no,300234067001120,SVP-B,ECCC,RCAF,North
2021-09-04T04:59:57Z,1630731597,2021,5,0,247.2083,247.2083,77.0532,-75.636,1008.2,-0.4,-999.0,yes,yes,no,300234067001120,SVP-B,ECCC,RCAF,North
2021-09-04T06:00:00Z,1630735200,2021,6,0,247.25,247.25,77.0452,-75.5674,1008.2,-0.3,-999.0,yes,yes,no,300234067001120,SVP-B,ECCC,RCAF,North
2021-09-04T07:00:02Z,1630738803,2021,7,0,247.2917,247.2917,77.0336,-75.4894,1008.2,-0.1,-999.0,yes,yes,no,300234067001120,SVP-B,ECCC,RCAF,North
2021-09-04T07:59:57Z,1630742397,2021,8,0,247.3333,247.3333,77.0176,-75.4166,1008.1,-0.2,-999.0,yes,yes,no,300234067001120,SVP-B,ECCC,RCAF,North
2021-09-04T09:00:00Z,1630746000,2021,9,0,247.375,247.375,77.0014,-75.3712,1008.0,-0.1,-999.0,yes,yes,no,300234067001120,SVP-B,ECCC,RCAF,North
2021-09-04T10:00:02Z,1630749603,2021,10,0,247.4167,247.4167,76.9868,-75.3418,1007.9,-0.1,-999.0,yes,yes,no,300234067001120,SVP-B,ECCC,RCAF,North
2021-09-04T10:59:57Z,1630753197,2021,11,0,247.4583,247.4583,76.9742,-75.3318,1007.6,-0.1,-999.0,yes,yes,no,300234067001120,SVP-B,ECCC,RCAF,North
2021-09-04T12:00:00Z,1630756800,2021,12,0,247.5,247.5,76.9608,-75.3188,1007.8,-0.2,-999.0,yes,yes,no,300234067001120,SVP-B,ECCC,RCAF,North
2021-09-04T13:00:02Z,1630760403,2021,13,0,247.5417,247.5417,76.942,-75.2972,1007.7,0.6,-999.0,yes,yes,no,300234067001120,SVP-B,ECCC,RCAF,North
2021-09-04T13:59:57Z,1630763997,2021,14,0,247.5833,247.5833,76.9222,-75.2594,1007.8,0.4,-999.0,yes,yes,no,300234067001120,SVP-B,ECCC,RCAF,North
2021-09-04T15:00:00Z,1630767600,2021,15,0,247.625,247.625,76.901,-75.2226,1008.1,0.1,-999.0,yes,yes,no,300234067001120,SVP-B,ECCC,RCAF,North
2021-09-04T16:00:02Z,1630771203,2021,16,0,247.6667,247.6667,76.8782,-75.2026,1008.3,0.2,-999.0,yes,yes,no,300234067001120,SVP-B,ECCC,RCAF,North
2021-09-04T16:59:57Z,1630774797,2021,17,0,247.7083,247.7083,76.8556,-75.1842,1008.3,0.3,-999.0,yes,yes,no,300234067001120,SVP-B,ECCC,RCAF,North
2021-09-04T18:00:00Z,1630778400,2021,18,0,247.75,247.75,76.8338,-75.1808,1008.4,0.4,-999.0,yes,yes,no,300234067001120,SVP-B,ECCC,RCAF,North
2021-09-04T19:00:02Z,1630782003,2021,19,0,247.7917,247.7917,76.8136,-75.1922,1008.3,0.3,-999.0,yes,yes,no,300234067001120,SVP-B,ECCC,RCAF,North
2021-09-04T19:59:57Z,1630785597,2021,20,0,247.8333,247.8333,76.7974,-75.2098,1008.2,0.2,-999.0,yes,yes,no,300234067001120,SVP-B,ECCC,RCAF,North
2021-09-04T21:00:00Z,1630789200,2021,21,0,247.875,247.875,76.7818,-75.243,1007.9,0.2,-999.0,yes,yes,no,300234067001120,SVP-B,ECCC,RCAF,North
2021-09-04T22:00:02Z,1630792803,2021,22,0,247.9167,247.9167,76.7736,-75.2906,1007.5,0.3,-999.0,yes,yes,no,300234067001120,SVP-B,ECCC,RCAF,North
2021-09-04T22:59:57Z,1630796397,2021,23,0,247.9583,247.9583,76.7646,-75.3242,1007.4,0.4,-999.0,yes,yes,no,300234067001120,SVP-B,ECCC,RCAF,North
2021-09-05T00:00:00Z,1630800000,2021,0,0,248.0,248.0,76.7572,-75.3422,1007.2,-0.1,-999.0,yes,yes,no,300234067001120,SVP-B,ECCC,RCAF,North
2021-09-05T01:00:02Z,1630803603,2021,1,0,248.0417,248.0417,76.7494,-75.3572,1007.0,-0.1,-999.0,yes,yes,no,300234067001120,SVP-B,ECCC,RCAF,North
2021-09-05T01:59:57Z,1630807197,2021,2,0,248.0833,248.0833,76.7352,-75.3766,1006.9,-0.3,-999.0,yes,yes,no,300234067001120,SVP-B,ECCC,RCAF,North
2021-09-05T03:00:00Z,1630810800,2021,3,0,248.125,248.125,76.7222,-75.3966,1006.6,-0.2,-999.0,yes,yes,no,300234067001120,SVP-B,ECCC,RCAF,North
2021-09-05T04:00:02Z,1630814403,2021,4,0,248.1667,248.1667,76.7064,-75.4156,1006.3,0.0,-999.0,yes,yes,no,300234067001120,SVP-B,ECCC,RCAF,North
2021-09-05T04:59:57Z,1630817997,2021,5,0,248.2083,248.2083,76.6828,-75.443,1006.3,0.0,-999.0,yes,yes,no,300234067001120,SVP-B,ECCC,RCAF,North
2021-09-05T06:00:00Z,1630821600,2021,6,0,248.25,248.25,76.6566,-75.4854,1006.4,-0.1,-999.0,yes,yes,no,300234067001120,SVP-B,ECCC,RCAF,North
2021-09-05T07:00:02Z,1630825203,2021,7,0,248.2917,248.2917,76.63,-75.5268,1006.4,-0.2,-999.0,yes,yes,no,300234067001120,SVP-B,ECCC,RCAF,North
2021-09-05T07:59:57Z,1630828797,2021,8,0,248.3333,248.3333,76.6038,-75.5638,1006.6,-0.4,-999.0,yes,yes,no,300234067001120,SVP-B,ECCC,RCAF,North
2021-09-05T09:00:00Z,1630832400,2021,9,0,248.375,248.375,76.5748,-75.5954,1006.7,-0.4,-999.0,yes,yes,no,300234067001120,SVP-B,ECCC,RCAF,North
2021-09-05T10:00:02Z,1630836003,2021,10,0,248.4167,248.4167,76.551,-75.624,1006.6,-0.5,-999.0,yes,yes,no,300234067001120,SVP-B,ECCC,RCAF,North
2021-09-05T10:59:57Z,1630839597,2021,11,0,248.4583,248.4583,76.5302,-75.6252,1006.5,-0.6,-999.0,yes,yes,no,300234067001120,SVP-B,ECCC,RCAF,North
2021-09-05T12:00:00Z,1630843200,2021,12,0,248.5,248.5,76.5082,-75.6278,1006.3,-0.6,-999.0,yes,yes,no,300234067001120,SVP-B,ECCC,RCAF,North
2021-09-05T13:00:02Z,1630846803,2021,13,0,248.5417,248.5417,76.4836,-75.6228,1006.3,-0.4,-999.0,yes,yes,no,300234067001120,SVP-B,ECCC,RCAF,North
2021-09-05T13:59:57Z,1630850397,2021,14,0,248.5833,248.5833,76.459,-75.618,1006.0,-0.4,-999.0,yes,yes,no,300234067001120,SVP-B,ECCC,RCAF,North
2021-09-05T15:00:00Z,1630854000,2021,15,0,248.625,248.625,76.4358,-75.6138,1006.0,-0.3,-999.0,yes,yes,no,300234067001120,SVP-B,ECCC,RCAF,North
2021-09-05T16:00:02Z,1630857603,2021,16,0,248.6667,248.6667,76.4144,-75.6132,1005.8,-0.3,-999.0,yes,yes,no,300234067001120,SVP-B,ECCC,RCAF,North
2021-09-05T16:59:57Z,1630861197,2021,17,0,248.7083,248.7083,76.394,-75.6158,1005.7,-0.2,-999.0,yes,yes,no,300234067001120,SVP-B,ECCC,RCAF,North
2021-09-05T18:00:00Z,1630864800,2021,18,0,248.75,248.75,76.375,-75.6326,1005.4,-0.5,-999.0,yes,yes,no,300234067001120,SVP-B,ECCC,RCAF,North
2021-09-05T19:00:02Z,1630868403,2021,19,0,248.7917,248.7917,76.3606,-75.6478,1005.3,-0.6,-999.0,yes,yes,no,300234067001120,SVP-B,ECCC,RCAF,North
2021-09-05T19:59:57Z,1630871997,2021,20,0,248.8333,248.8333,76.345,-75.6564,1005.4,-1.1,-999.0,yes,yes,no,300234067001120,SVP-B,ECCC,RCAF,North
2021-09-05T21:00:00Z,1630875600,2021,21,0,248.875,248.875,76.3296,-75.6662,1005.4,-1.0,-999.0,yes,yes,no,300234067001120,SVP-B,ECCC,RCAF,North
2021-09-05T22:00:02Z,1630879203,2021,22,0,248.9167,248.9167,76.3154,-75.6736,1005.0,-0.9,-999.0,yes,yes,no,300234067001120,SVP-B,ECCC,RCAF,North
2021-09-05T22:59:57Z,1630882797,2021,23,0,248.9583,248.9583,76.303,-75.6854,1004.6,-1.0,-999.0,yes,yes,no,300234067001120,SVP-B,ECCC,RCAF,North
2021-09-06T00:00:00Z,1630886400,2021,0,0,249.0,249.0,76.2936,-75.7078,1004.4,-1.0,-999.0,yes,yes,no,300234067001120,SVP-B,ECCC,RCAF,North
2021-09-06T01:00:02Z,1630890003,2021,1,0,249.0417,249.0417,76.2784,-75.731,1004.0,-0.9,-999.0,yes,yes,no,300234067001120,SVP-B,ECCC,RCAF,North
2021-09-06T01:59:57Z,1630893597,2021,2,0,249.0833,249.0833,76.2598,-75.7566,1003.6,-0.8,-999.0,yes,yes,no,300234067001120,SVP-B,ECCC,RCAF,North
2021-09-06T03:00:00Z,1630897200,2021,3,0,249.125,249.125,76.2434,-75.8048,1003.2,-0.7,-999.0,yes,yes,no,300234067001120,SVP-B,ECCC,RCAF,North
2021-09-06T04:00:02Z,1630900803,2021,4,0,249.1667,249.1667,76.2242,-75.8572,1003.2,-0.6,-999.0,yes,yes,no,300234067001120,SVP-B,ECCC,RCAF,North
2021-09-06T04:59:57Z,1630904397,2021,5,0,249.2083,249.2083,76.2066,-75.9022,1003.5,-1.1,-999.0,yes,yes,no,300234067001120,SVP-B,ECCC,RCAF,North
2021-09-06T06:00:00Z,1630908000,2021,6,0,249.25,249.25,76.1876,-75.9422,1003.7,-0.2,-999.0,yes,yes,no,300234067001120,SVP-B,ECCC,RCAF,North
2021-09-06T07:00:02Z,1630911603,2021,7,0,249.2917,249.2917,76.1682,-75.9688,1004.3,-0.1,-999.0,yes,yes,no,300234067001120,SVP-B,ECCC,RCAF,North
2021-09-06T07:59:57Z,1630915197,2021,8,0,249.3333,249.3333,76.1474,-75.9794,1004.8,-0.6,-999.0,yes,yes,no,300234067001120,SVP-B,ECCC,RCAF,North
2021-09-06T09:00:00Z,1630918800,2021,9,0,249.375,249.375,76.1268,-75.9874,1005.3,-0.2,-999.0,yes,yes,no,300234067001120,SVP-B,ECCC,RCAF,North
2021-09-06T10:00:02Z,1630922403,2021,10,0,249.4167,249.4167,76.1068,-76.0012,1005.5,-0.2,-999.0,yes,yes,no,300234067001120,SVP-B,ECCC,RCAF,North
2021-09-06T10:59:57Z,1630925997,2021,11,0,249.4583,249.4583,76.0896,-76.0094,1005.6,0.1,-999.0,yes,yes,no,300234067001120,SVP-B,ECCC,RCAF,North
2021-09-06T12:00:00Z,1630929600,2021,12,0,249.5,249.5,76.0742,-76.0026,1005.8,0.2,-999.0,yes,yes,no,300234067001120,SVP-B,ECCC,RCAF,North
2021-09-06T13:00:02Z,1630933203,2021,13,0,249.5417,249.5417,76.0602,-75.9934,1005.9,0.0,-999.0,yes,yes,no,300234067001120,SVP-B,ECCC,RCAF,North
2021-09-06T13:59:57Z,1630936797,2021,14,0,249.5833,249.5833,76.0474,-75.9932,1005.8,-0.1,-999.0,yes,yes,no,300234067001120,SVP-B,ECCC,RCAF,North
2021-09-06T15:00:00Z,1630940400,2021,15,0,249.625,249.625,76.0358,-75.992,1005.6,-0.1,-999.0,yes,yes,no,300234067001120,SVP-B,ECCC,RCAF,North
2021-09-06T16:00:02Z,1630944003,2021,16,0,249.6667,249.6667,76.0278,-75.981,1005.7,-0.2,-999.0,yes,yes,no,300234067001120,SVP-B,ECCC,RCAF,North
2021-09-06T16:59:57Z,1630947597,2021,17,0,249.7083,249.7083,76.0226,-75.9708,1005.6,0.1,-999.0,yes,yes,no,300234067001120,SVP-B,ECCC,RCAF,North
2021-09-06T18:00:00Z,1630951200,2021,18,0,249.75,249.75,76.013,-75.9484,1005.6,0.1,-999.0,yes,yes,no,300234067001120,SVP-B,ECCC,RCAF,North
2021-09-06T19:00:02Z,1630954803,2021,19,0,249.7917,249.7917,76.0036,-75.9192,1005.6,0.1,-999.0,yes,yes,no,300234067001120,SVP-B,ECCC,RCAF,North
2021-09-06T19:59:57Z,1630958397,2021,20,0,249.8333,249.8333,75.9954,-75.8928,1005.8,0.2,-999.0,yes,yes,no,300234067001120,SVP-B,ECCC,RCAF,North
2021-09-06T21:00:00Z,1630962000,2021,21,0,249.875,249.875,75.9864,-75.8674,1005.9,0.4,-999.0,yes,yes,no,300234067001120,SVP-B,ECCC,RCAF,North
2021-09-06T22:00:02Z,1630965603,2021,22,0,249.9167,249.9167,75.9794,-75.8426,1005.8,0.3,-999.0,yes,yes,no,300234067001120,SVP-B,ECCC,RCAF,North
2021-09-06T22:59:57Z,1630969197,2021,23,0,249.9583,249.9583,75.9774,-75.8314,1005.8,0.3,-999.0,yes,yes,no,300234067001120,SVP-B,ECCC,RCAF,North
2021-09-07T00:00:00Z,1630972800,2021,0,0,250.0,250.0,75.9742,-75.8254,1005.9,0.0,-999.0,yes,yes,no,300234067001120,SVP-B,ECCC,RCAF,North
2021-09-07T01:00:02Z,1630976403,2021,1,0,250.0417,250.0417,75.9682,-75.8242,1005.9,0.0,-999.0,yes,yes,no,300234067001120,SVP-B,ECCC,RCAF,North
2021-09-07T01:59:57Z,1630979997,2021,2,0,250.0833,250.0833,75.958,-75.8236,1005.9,-0.4,-999.0,yes,yes,no,300234067001120,SVP-B,ECCC,RCAF,North
2021-09-07T03:00:00Z,1630983600,2021,3,0,250.125,250.125,75.9454,-75.8258,1005.6,0.2,-999.0,yes,yes,no,300234067001120,SVP-B,ECCC,RCAF,North
2021-09-07T04:00:02Z,1630987203,2021,4,0,250.1667,250.1667,75.9292,-75.8228,1005.5,0.3,-999.0,yes,yes,no,300234067001120,SVP-B,ECCC,RCAF,North
2021-09-07T04:59:57Z,1630990797,2021,5,0,250.2083,250.2083,75.9116,-75.8218,1005.0,0.0,-999.0,yes,yes,no,300234067001120,SVP-B,ECCC,RCAF,North
2021-09-07T06:00:00Z,1630994400,2021,6,0,250.25,250.25,75.89,-75.831,1005.0,0.7,-999.0,yes,yes,no,300234067001120,SVP-B,ECCC,RCAF,North
2021-09-07T07:00:02Z,1630998003,2021,7,0,250.2917,250.2917,75.8632,-75.8708,1005.5,0.8,-999.0,yes,yes,no,300234067001120,SVP-B,ECCC,RCAF,North
2021-09-07T07:59:57Z,1631001597,2021,8,0,250.3333,250.3333,75.8388,-75.9048,1005.9,0.5,-999.0,yes,yes,no,300234067001120,SVP-B,ECCC,RCAF,North
2021-09-07T09:00:00Z,1631005200,2021,9,0,250.375,250.375,75.817,-75.9342,1005.8,1.0,-999.0,yes,yes,no,300234067001120,SVP-B,ECCC,RCAF,North
2021-09-07T10:00:02Z,1631008803,2021,10,0,250.4167,250.4167,75.798,-75.9638,1005.8,1.3,-999.0,yes,yes,no,300234067001120,SVP-B,ECCC,RCAF,North
2021-09-07T10:59:57Z,1631012397,2021,11,0,250.4583,250.4583,75.7796,-75.9912,1006.1,1.6,-999.0,yes,yes,no,300234067001120,SVP-B,ECCC,RCAF,North
2021-09-07T12:00:00Z,1631016000,2021,12,0,250.5,250.5,75.7586,-76.0036,1006.7,2.0,-999.0,yes,yes,no,300234067001120,SVP-B,ECCC,RCAF,North
2021-09-07T13:00:02Z,1631019603,2021,13,0,250.5417,250.5417,75.732,-76.028,1007.2,2.3,-999.0,yes,yes,no,300234067001120,SVP-B,ECCC,RCAF,North
2021-09-07T13:59:57Z,1631023197,2021,14,0,250.5833,250.5833,75.709,-76.0454,1007.2,2.4,-999.0,yes,yes,no,300234067001120,SVP-B,ECCC,RCAF,North
2021-09-07T15:00:00Z,1631026800,2021,15,0,250.625,250.625,75.6854,-76.0578,1007.5,2.6,-999.0,yes,yes,no,300234067001120,SVP-B,ECCC,RCAF,North
2021-09-07T16:00:02Z,1631030403,2021,16,0,250.6667,250.6667,75.6602,-76.0726,1007.8,2.8,-999.0,yes,yes,no,300234067001120,SVP-B,ECCC,RCAF,North
2021-09-07T16:59:57Z,1631033997,2021,17,0,250.7083,250.7083,75.6356,-76.1008,1008.8,2.9,-999.0,yes,yes,no,300234067001120,SVP-B,ECCC,RCAF,North
2021-09-07T18:00:00Z,1631037600,2021,18,0,250.75,250.75,75.6098,-76.1182,1009.5,2.8,-999.0,yes,yes,no,300234067001120,SVP-B,ECCC,RCAF,North
2021-09-07T19:00:02Z,1631041203,2021,19,0,250.7917,250.7917,75.585,-76.1398,1010.3,2.7,-999.0,yes,yes,no,300234067001120,SVP-B,ECCC,RCAF,North
2021-09-07T19:59:57Z,1631044797,2021,20,0,250.8333,250.8333,75.5646,-76.1664,1011.0,2.6,-999.0,yes,yes,no,300234067001120,SVP-B,ECCC,RCAF,North
2021-09-07T21:00:00Z,1631048400,2021,21,0,250.875,250.875,75.5464,-76.1814,1011.9,2.5,-999.0,yes,yes,no,300234067001120,SVP-B,ECCC,RCAF,North
2021-09-07T22:00:02Z,1631052003,2021,22,0,250.9167,250.9167,75.5302,-76.1768,1012.7,2.3,-999.0,yes,yes,no,300234067001120,SVP-B,ECCC,RCAF,North
2021-09-07T22:59:57Z,1631055597,2021,23,0,250.9583,250.9583,75.5156,-76.1626,1013.1,2.4,-999.0,yes,yes,no,300234067001120,SVP-B,ECCC,RCAF,North
2021-09-08T00:00:00Z,1631059200,2021,0,0,251.0,251.0,75.5006,-76.1546,1013.6,2.4,-999.0,yes,yes,no,300234067001120,SVP-B,ECCC,RCAF,North
2021-09-08T01:00:02Z,1631062803,2021,1,0,251.0417,251.0417,75.4896,-76.1716,1014.1,2.4,-999.0,yes,yes,no,300234067001120,SVP-B,ECCC,RCAF,North
2021-09-08T01:59:57Z,1631066397,2021,2,0,251.0833,251.0833,75.4812,-76.2058,1014.8,2.4,-999.0,yes,yes,no,300234067001120,SVP-B,ECCC,RCAF,North
2021-09-08T03:00:00Z,1631070000,2021,3,0,251.125,251.125,75.4746,-76.2468,1015.4,2.5,-999.0,yes,yes,no,300234067001120,SVP-B,ECCC,RCAF,North
2021-09-08T04:00:02Z,1631073603,2021,4,0,251.1667,251.1667,75.4674,-76.2908,1015.6,2.4,-999.0,yes,yes,no,300234067001120,SVP-B,ECCC,RCAF,North
2021-09-08T04:59:57Z,1631077197,2021,5,0,251.2083,251.2083,75.4602,-76.3286,1016.0,2.3,-999.0,yes,yes,no,300234067001120,SVP-B,ECCC,RCAF,North
2021-09-08T06:00:00Z,1631080800,2021,6,0,251.25,251.25,75.4512,-76.3388,1016.4,2.1,-999.0,yes,yes,no,300234067001120,SVP-B,ECCC,RCAF,North
2021-09-08T07:00:02Z,1631084403,2021,7,0,251.2917,251.2917,75.4402,-76.3362,1016.8,2.1,-999.0,yes,yes,no,300234067001120,SVP-B,ECCC,RCAF,North
2021-09-08T07:59:57Z,1631087997,2021,8,0,251.3333,251.3333,75.424,-76.3214,1017.3,2.1,-999.0,yes,yes,no,300234067001120,SVP-B,ECCC,RCAF,North
2021-09-08T09:00:00Z,1631091600,2021,9,0,251.375,251.375,75.4112,-76.2978,1017.7,2.3,-999.0,yes,yes,no,300234067001120,SVP-B,ECCC,RCAF,North
2021-09-08T10:00:02Z,1631095203,2021,10,0,251.4167,251.4167,75.3988,-76.274,1018.0,2.4,-999.0,yes,yes,no,300234067001120,SVP-B,ECCC,RCAF,North
2021-09-08T10:59:57Z,1631098797,2021,11,0,251.4583,251.4583,75.3886,-76.2558,1018.2,2.3,-999.0,yes,yes,no,300234067001120,SVP-B,ECCC,RCAF,North
2021-09-08T12:00:00Z,1631102400,2021,12,0,251.5,251.5,75.3804,-76.2526,1018.5,2.3,-999.0,yes,yes,no,300234067001120,SVP-B,ECCC,RCAF,North
2021-09-08T13:00:02Z,1631106003,2021,13,0,251.5417,251.5417,75.3764,-76.2556,1018.5,2.5,-999.0,yes,yes,no,300234067001120,SVP-B,ECCC,RCAF,North
2021-09-08T13:59:57Z,1631109597,2021,14,0,251.5833,251.5833,75.3742,-76.2666,1018.2,2.5,-999.0,yes,yes,no,300234067001120,SVP-B,ECCC,RCAF,North
2021-09-08T15:00:00Z,1631113200,2021,15,0,251.625,251.625,75.3696,-76.2994,1018.2,2.5,-999.0,yes,yes,no,300234067001120,SVP-B,ECCC,RCAF,North
2021-09-08T16:00:02Z,1631116803,2021,16,0,251.6667,251.6667,75.3638,-76.3184,1018.2,2.6,-999.0,yes,yes,no,300234067001120,SVP-B,ECCC,RCAF,North
2021-09-08T16:59:57Z,1631120397,2021,17,0,251.7083,251.7083,75.3576,-76.3338,1018.2,2.8,-999.0,yes,yes,no,300234067001120,SVP-B,ECCC,RCAF,North
2021-09-08T18:00:00Z,1631124000,2021,18,0,251.75,251.75,75.3504,-76.3362,1018.4,2.8,-999.0,yes,yes,no,300234067001120,SVP-B,ECCC,RCAF,North
2021-09-08T19:00:02Z,1631127603,2021,19,0,251.7917,251.7917,75.343,-76.3304,1018.8,2.8,-999.0,yes,yes,no,300234067001120,SVP-B,ECCC,RCAF,North
2021-09-08T19:59:57Z,1631131197,2021,20,0,251.8333,251.8333,75.3334,-76.324,1019.1,2.9,-999.0,yes,yes,no,300234067001120,SVP-B,ECCC,RCAF,North
2021-09-08T21:00:00Z,1631134800,2021,21,0,251.875,251.875,75.3226,-76.3156,1019.5,3.0,-999.0,yes,yes,no,300234067001120,SVP-B,ECCC,RCAF,North
2021-09-08T22:00:02Z,1631138403,2021,22,0,251.9167,251.9167,75.3116,-76.3006,1019.6,3.0,-999.0,yes,yes,no,300234067001120,SVP-B,ECCC,RCAF,North
2021-09-08T22:59:57Z,1631141997,2021,23,0,251.9583,251.9583,75.2976,-76.292,1019.8,2.9,-999.0,yes,yes,no,300234067001120,SVP-B,ECCC,RCAF,North
2021-09-09T00:00:00Z,1631145600,2021,0,0,252.0,252.0,75.283,-76.2906,1020.1,2.9,-999.0,yes,yes,no,300234067001120,SVP-B,ECCC,RCAF,North
2021-09-09T01:00:02Z,1631149203,2021,1,0,252.0417,252.0417,75.268,-76.2972,1020.4,2.9,-999.0,yes,yes,no,300234067001120,SVP-B,ECCC,RCAF,North
2021-09-09T01:59:57Z,1631152797,2021,2,0,252.0833,252.0833,75.254,-76.3156,1020.2,2.8,-999.0,yes,yes,no,300234067001120,SVP-B,ECCC,RCAF,North
2021-09-09T03:00:00Z,1631156400,2021,3,0,252.125,252.125,75.2414,-76.3476,1020.1,2.8,-999.0,yes,yes,no,300234067001120,SVP-B,ECCC,RCAF,North
2021-09-09T04:00:02Z,1631160003,2021,4,0,252.1667,252.1667,75.2304,-76.3784,1023.6,2.7,-999.0,yes,yes,no,300234067001120,SVP-B,ECCC,RCAF,North
2021-09-09T04:59:57Z,1631163597,2021,5,0,252.2083,252.2083,75.2208,-76.4044,1023.0,2.6,-999.0,yes,yes,no,300234067001120,SVP-B,ECCC,RCAF,North
2021-09-09T06:00:00Z,1631167200,2021,6,0,252.25,252.25,75.214,-76.4194,1020.2,2.6,-999.0,yes,yes,no,300234067001120,SVP-B,ECCC,RCAF,North
2021-09-09T07:00:02Z,1631170803,2021,7,0,252.2917,252.2917,75.208,-76.4072,1019.8,2.4,-999.0,yes,yes,no,300234067001120,SVP-B,ECCC,RCAF,North
2021-09-09T07:59:57Z,1631174397,2021,8,0,252.3333,252.3333,75.2022,-76.3766,1019.9,2.6,-999.0,yes,yes,no,300234067001120,SVP-B,ECCC,RCAF,North
2021-09-09T09:00:00Z,1631178000,2021,9,0,252.375,252.375,75.192,-76.3214,1020.0,2.5,-999.0,yes,yes,no,300234067001120,SVP-B,ECCC,RCAF,North
2021-09-09T10:00:02Z,1631181603,2021,10,0,252.4167,252.4167,75.1798,-76.2658,1019.9,2.5,-999.0,yes,yes,no,300234067001120,SVP-B,ECCC,RCAF,North
2021-09-09T10:59:57Z,1631185197,2021,11,0,252.4583,252.4583,75.1672,-76.2056,1020.2,2.5,-999.0,yes,yes,no,300234067001120,SVP-B,ECCC,RCAF,North
2021-09-09T12:00:00Z,1631188800,2021,12,0,252.5,252.5,75.1524,-76.1496,1020.1,2.6,-999.0,yes,yes,no,300234067001120,SVP-B,ECCC,RCAF,North
2021-09-09T13:00:02Z,1631192403,2021,13,0,252.5417,252.5417,75.1366,-76.1034,1020.0,2.7,-999.0,yes,yes,no,300234067001120,SVP-B,ECCC,RCAF,North
2021-09-09T13:59:57Z,1631195997,2021,14,0,252.5833,252.5833,75.1218,-76.0746,1020.1,2.7,-999.0,yes,yes,no,300234067001120,SVP-B,ECCC,RCAF,North
2021-09-09T15:00:00Z,1631199600,2021,15,0,252.625,252.625,75.1094,-76.0592,1019.9,2.7,-999.0,yes,yes,no,300234067001120,SVP-B,ECCC,RCAF,North